Weather History for KOPM - September, 2012

Change the Weather History Date:

Sunday, September 23, 2012

  Actual Average Record
Temperature  
Mean Temperature 82 °F -  
Max Temperature 84 °F - - ()
Min Temperature 80 °F - - ()
Cooling Degree Days 17    
Growing Degree Days 32 (Base 50)    
Moisture  
Dew Point 73 °F    
Average Humidity 73    
Maximum Humidity 79    
Minimum Humidity 66    
Precipitation  
Precipitation 0.00 in - - ()
Sea Level Pressure  
Sea Level Pressure 30.09 in    
Wind  
Wind Speed 11 mph (ENE)    
Max Wind Speed 16 mph    
Max Gust Speed -    
Visibility 10 miles    
Events      
T = Trace of Precipitation, MM = Missing Value Source: NWS Daily Summary

Daily Weather History Graph

Daily Weather History Graph

Search for Another Location

Airport or City:

Trip Planner

Search our weather history database for the weather conditions in past years. The results will help you decide how hot, cold, wet, or windy it might be!

Date:

Astronomy

Sep. 23, 2012 Rise Set
Actual Time 7:16 AM CDT 7:22 PM CDT
Civil Twilight 6:53 AM CDT 7:45 PM CDT
Nautical Twilight 6:26 AM CDT 8:12 PM CDT
Astronomical Twilight 5:59 AM CDT 8:39 PM CDT
Moon 2:56 PM CDT (9/23) 1:00 AM CDT (9/23)
Length of Visible Light 12h 51m
Length of Day
12h 05m
First Quarter, 60% of the Moon is Illuminated
Sep 23
First Quarter
Sep 29
Full
Oct 8
Last Quarter
Oct 15
New
Oct 21
First Quarter

Hourly Weather History & Observations

Time (CDT) Temp. Heat Index Dew Point Humidity Pressure Visibility Wind Dir Wind Speed Gust Speed Precip Events Conditions
12:15 AM 82.4 °F 89.5 °F 75.2 °F 79% 30.06 in 10.0 mi ENE 13.8 mph - N/A   Partly Cloudy
12:35 AM 82.4 °F 89.5 °F 75.2 °F 79% 30.06 in 10.0 mi East 12.7 mph - N/A   Clear
12:55 AM 82.4 °F 89.5 °F 75.2 °F 79% 30.06 in 10.0 mi East 11.5 mph - N/A   Partly Cloudy
1:15 AM 82.4 °F 88.2 °F 73.4 °F 74% 30.06 in 10.0 mi East 10.4 mph - N/A   Scattered Clouds
1:35 AM 82.4 °F 88.2 °F 73.4 °F 74% 30.06 in 10.0 mi East 9.2 mph - N/A   Partly Cloudy
1:55 AM 82.4 °F 88.2 °F 73.4 °F 74% 30.06 in 10.0 mi East 11.5 mph - N/A   Clear
2:15 AM 82.4 °F 88.2 °F 73.4 °F 74% 30.06 in 10.0 mi East 10.4 mph - N/A   Scattered Clouds
2:35 AM 82.4 °F 88.2 °F 73.4 °F 74% 30.05 in 10.0 mi ESE 10.4 mph - N/A   Scattered Clouds
2:55 AM 82.4 °F 88.2 °F 73.4 °F 74% 30.05 in 10.0 mi SE 10.4 mph - N/A   Partly Cloudy
3:15 AM 82.4 °F 88.2 °F 73.4 °F 74% 30.05 in 10.0 mi ESE 9.2 mph - N/A   Partly Cloudy
3:35 AM 82.4 °F 88.2 °F 73.4 °F 74% 30.05 in 10.0 mi ESE 9.2 mph - N/A   Clear
3:55 AM 82.4 °F 88.2 °F 73.4 °F 74% 30.05 in 10.0 mi ESE 9.2 mph - N/A   Clear
4:15 AM 82.4 °F 88.2 °F 73.4 °F 74% 30.05 in 10.0 mi ESE 6.9 mph - N/A   Clear
4:35 AM 82.4 °F 88.2 °F 73.4 °F 74% 30.05 in 10.0 mi ESE 8.1 mph - N/A   Partly Cloudy
4:55 AM 82.4 °F 88.2 °F 73.4 °F 74% 30.05 in 10.0 mi East 5.8 mph - N/A   Clear
5:15 AM 82.4 °F 88.2 °F 73.4 °F 74% 30.05 in 10.0 mi East 4.6 mph - N/A   Clear
5:35 AM 82.4 °F 88.2 °F 73.4 °F 74% 30.06 in 10.0 mi ESE 8.1 mph - N/A   Clear
5:55 AM 82.4 °F 88.2 °F 73.4 °F 74% 30.06 in 10.0 mi ESE 5.8 mph - N/A   Clear
6:15 AM 82.4 °F 88.2 °F 73.4 °F 74% 30.06 in 10.0 mi ESE 8.1 mph - N/A   Partly Cloudy
6:35 AM 82.4 °F 88.2 °F 73.4 °F 74% 30.07 in 10.0 mi East 6.9 mph - N/A   Clear
6:55 AM 82.4 °F 88.2 °F 73.4 °F 74% 30.07 in 10.0 mi East 4.6 mph - N/A   Clear
7:15 AM 82.4 °F 88.2 °F 73.4 °F 74% 30.08 in 10.0 mi East 6.9 mph - N/A   Clear
7:35 AM 82.4 °F 88.2 °F 73.4 °F 74% 30.08 in 10.0 mi East 8.1 mph - N/A   Clear
7:55 AM 80.6 °F 85.4 °F 73.4 °F 79% 30.09 in 10.0 mi Variable 5.8 mph - N/A   Clear
8:35 AM 82.4 °F 87.2 °F 71.6 °F 70% 30.11 in 10.0 mi ENE 10.4 mph - N/A   Clear
8:55 AM 82.4 °F 87.2 °F 71.6 °F 70% 30.11 in 10.0 mi ENE 5.8 mph - N/A   Clear
9:15 AM 82.4 °F 87.2 °F 71.6 °F 70% 30.12 in 10.0 mi East 4.6 mph - N/A   Clear
9:35 AM 84.2 °F 89.6 °F 71.6 °F 66% 30.12 in 10.0 mi NE 5.8 mph - N/A   Clear
9:55 AM 84.2 °F 90.9 °F 73.4 °F 70% 30.12 in 10.0 mi NE 4.6 mph - N/A   Clear
10:15 AM 84.2 °F 90.9 °F 73.4 °F 70% 30.13 in 10.0 mi NE 10.4 mph - N/A   Partly Cloudy
10:55 AM 84.2 °F 90.9 °F 73.4 °F 70% 30.13 in 10.0 mi ENE 10.4 mph - N/A   Scattered Clouds
11:15 AM 84.2 °F 90.9 °F 73.4 °F 70% 30.13 in 10.0 mi NE 10.4 mph - N/A   Scattered Clouds
11:55 AM 84.2 °F 90.9 °F 73.4 °F 70% 30.14 in 10.0 mi NE 9.2 mph - N/A   Partly Cloudy
12:15 PM 84.2 °F 90.9 °F 73.4 °F 70% 30.13 in 10.0 mi NE 9.2 mph - N/A   Clear
12:35 PM 84.2 °F 90.9 °F 73.4 °F 70% 30.13 in 10.0 mi NE 9.2 mph - N/A   Clear
12:55 PM 84.2 °F 90.9 °F 73.4 °F 70% 30.12 in 10.0 mi NE 9.2 mph - N/A   Clear
1:15 PM 84.2 °F 90.9 °F 73.4 °F 70% 30.12 in 10.0 mi NE 11.5 mph - N/A   Partly Cloudy
1:35 PM 84.2 °F 90.9 °F 73.4 °F 70% 30.11 in 10.0 mi NE 11.5 mph - N/A   Partly Cloudy
1:55 PM 84.2 °F 90.9 °F 73.4 °F 70% 30.11 in 10.0 mi NE 9.2 mph - N/A   Partly Cloudy
2:15 PM 84.2 °F 90.9 °F 73.4 °F 70% 30.10 in 10.0 mi NE 10.4 mph - N/A   Partly Cloudy
2:35 PM 84.2 °F 90.9 °F 73.4 °F 70% 30.10 in 10.0 mi NE 11.5 mph - N/A   Clear
2:55 PM 84.2 °F 92.3 °F 75.2 °F 74% 30.09 in 10.0 mi NE 10.4 mph - N/A   Clear
3:15 PM 84.2 °F 90.9 °F 73.4 °F 70% 30.09 in 10.0 mi NE 11.5 mph - N/A   Clear
3:55 PM 84.2 °F 90.9 °F 73.4 °F 70% 30.08 in 10.0 mi NE 13.8 mph - N/A   Partly Cloudy
4:15 PM 84.2 °F 90.9 °F 73.4 °F 70% 30.08 in 10.0 mi ENE 10.4 mph - N/A   Clear
4:35 PM 84.2 °F 90.9 °F 73.4 °F 70% 30.07 in 10.0 mi ENE 12.7 mph - N/A   Clear
4:55 PM 84.2 °F 90.9 °F 73.4 °F 70% 30.08 in 9.0 mi NE 12.7 mph - N/A   Partly Cloudy
5:15 PM 82.4 °F 88.2 °F 73.4 °F 74% 30.08 in 10.0 mi ENE 16.1 mph - N/A   Scattered Clouds
5:35 PM 84.2 °F 92.3 °F 75.2 °F 74% 30.08 in 10.0 mi ENE 13.8 mph - N/A   Partly Cloudy
5:55 PM 84.2 °F 90.9 °F 73.4 °F 70% 30.09 in 10.0 mi ENE 13.8 mph - N/A   Scattered Clouds
6:15 PM 84.2 °F 90.9 °F 73.4 °F 70% 30.09 in 10.0 mi ENE 16.1 mph - N/A   Clear
6:35 PM 82.4 °F 88.2 °F 73.4 °F 74% 30.09 in 10.0 mi ENE 13.8 mph - N/A   Clear
6:55 PM 82.4 °F 88.2 °F 73.4 °F 74% 30.09 in 10.0 mi ENE 13.8 mph - N/A   Clear
7:15 PM 84.2 °F 89.6 °F 71.6 °F 66% 30.10 in 10.0 mi NE 12.7 mph - N/A   Clear
7:35 PM 84.2 °F 89.6 °F 71.6 °F 66% 30.09 in 10.0 mi NE 15.0 mph - N/A   Clear
7:55 PM 82.4 °F 88.2 °F 73.4 °F 74% 30.10 in 10.0 mi ENE 13.8 mph - N/A   Clear
8:15 PM 82.4 °F 88.2 °F 73.4 °F 74% 30.10 in 10.0 mi NE 13.8 mph - N/A   Partly Cloudy
8:35 PM 82.4 °F 88.2 °F 73.4 °F 74% 30.11 in 10.0 mi ENE 15.0 mph - N/A   Scattered Clouds
8:55 PM 82.4 °F 88.2 °F 73.4 °F 74% 30.10 in 10.0 mi ENE 15.0 mph - N/A   Partly Cloudy
9:15 PM 82.4 °F 88.2 °F 73.4 °F 74% 30.11 in 10.0 mi ENE 12.7 mph - N/A   Partly Cloudy
9:35 PM 82.4 °F 88.2 °F 73.4 °F 74% 30.11 in 10.0 mi ENE 13.8 mph - N/A   Clear
9:55 PM 82.4 °F 88.2 °F 73.4 °F 74% 30.11 in 10.0 mi ENE 12.7 mph - N/A   Clear
10:15 PM 82.4 °F 88.2 °F 73.4 °F 74% 30.12 in 10.0 mi ENE 12.7 mph - N/A   Partly Cloudy
10:35 PM 82.4 °F 88.2 °F 73.4 °F 74% 30.12 in 10.0 mi ENE 11.5 mph - N/A   Partly Cloudy
11:15 PM 82.4 °F 88.2 °F 73.4 °F 74% 30.12 in 10.0 mi East 12.7 mph - N/A   Clear
11:35 PM 82.4 °F 87.2 °F 71.6 °F 70% 30.12 in 10.0 mi East 11.5 mph - N/A   Clear
11:55 PM 82.4 °F 88.2 °F 73.4 °F 74% 30.12 in 10.0 mi East 11.5 mph - N/A   Clear